FENGYUN 1C DEB

Satellite information

Favourite Embed

Satellite Type and Status

DEBRISIN ORBIT

Key statistics

Satellite FENGYUN 1C DEB at a glance.

Uptime

9715

Days in orbit

Revolutions

≈ 14.7

Per day

Orbit

SSO

Sun Synchronous Orbit

Inclination

99.0

Latest

Satellite identification and parameters

Extended collection of information and parameters for FENGYUN 1C DEB.

Object identification

Identified? True

Debris? True

Object name: FENGYUN 1C DEB

International designator: 1999-025CKJ

Object number (NORAD): 31883

Object ID (CCSDS): 31883

Country: PEOPLES REPUBLIC OF CHINA (PRC)

Current information (Y/N): Y

RCS size: SMALL

Orbital parameters

Period: 98.111 minutes

Inclination: 99.0276 deg

SMA: 7046.484 km

Apoapsis: 756.494 km

Periapsis: 580.204 km

RAAN: 262.8049 deg

Eccentricy: 0.01250907

Argument of periapsis: 70.7327 deg

Mean anomaly: 290.7357 deg

Mean motion: 14.6772293 rev/day

Mean motion (dot): 0.00006099 rev/day2

B* drag term: 0.00096098955 1/REarth

Two-line elements (TLE)

Creation date: Dec. 12, 2025, 10:14 a.m.

Reference frame: TEME

Reference center: EARTH

Epoch: Dec. 12, 2025, 5:30 a.m. UTC

TLE line 0: 0 FENGYUN 1C DEB

TLE line 1: 1 31883U 99025CKJ 25346.22958538 .00006099 00000-0 96099-3 0 9990

TLE line 2: 2 31883 99.0276 262.8049 0125091 70.7327 290.7357 14.67722930979710

Live tracking on map

Real-time ground track for satellite FENGYUN 1C DEB.

In-orbit conjunctions

A list of the most updated potential collisions computed for object FENGYUN 1C DEB.

Target Orbit TCA Probability of collision Miss distance Type
SL-8 R/B LEO 2025-10-24 01:58:26 0.0002039435 570.0 (m) ROCKET BODY
OBJECT A SSO 2025-01-27 03:48:50 0.001622676 15.0 (m) UNKNOWN

Associated space launch

Chinese polar orbiting meteorological satellite

FENGYUN 1C DEB was lifted into orbit during the mission ‘Long March 4B | Feng Yun 1C’, on board a Long March 4B space rocket.

The launch took place on May 10, 1999, 1:33 a.m. from Launch Complex 7.

For more information about the launch, click the button.

Launch to space Long March 4B | Feng Yun 1C
Long March 4B | Feng Yun 1C

Agency: N/A

Status: Launch Successful

Launch date: May 10, 1999, 1:33 a.m. UTC

Rocket: Long March 4B

Launch pad: Launch Complex 7

Location: Taiyuan Satellite Launch Center, People's Republic of China

...

Latest news about this satellite

There are no fresh news available about this satellite. Check back as we update our databases every day.


Newsletter sign-up

Weekly statistics, charts and insights to help you stay on top of the space industry.